• Join FlightAware (Why Join?)
  • Login
  • US Flag GB Flag 
08:18 EDT


 

Airport Tracker/Info


-or-


 

Live Flight TrackerFlight Track Log ✈ UAL4257 ✈ 20-Apr-2013 ✈ MMMY / MTY - KIAH

Flight Track Log - Related Links

Times and Time Zones

All times are in EDT time to prevent confusion due to time zone crossing. See the UAL4257 flight status page for this flight to view local times or setup timezone preferences in your user account.

Time Position Orientation Groundspeed Altitude Reporting Facility
EDT Latitude Longitude Course Direction KTS MPH feet Rate Location/Type
12:16 25.9725 -99.8483 44° Northeast 292 336 11,800  Level Houston Center
12:17 26.3398 -99.5017 44° Northeast  Level Estimated
12:18 26.4122 -99.4230 44° Northeast  Level Estimated
12:18 26.0425 -99.7756 43° Northeast 321 369 13,100  Level Houston Center
12:19 26.4846 -99.3443 44° Northeast  Level Estimated
12:19 26.1106 -99.6944 47° Northeast 341 392 14,300  Level Houston Center
12:20 26.5569 -99.2654 44° Northeast  Level Estimated
12:20 26.1808 -99.6094 47° Northeast 357 411 15,500  Level Houston Center
12:21 26.6292 -99.1864 44° Northeast  Level Estimated
12:21 26.2514 -99.5211 48° Northeast 370 426 16,600  Level Houston Center
12:22 26.7014 -99.1073 44° Northeast  Level Estimated
12:22 26.3219 -99.4336 48° Northeast 376 433 17,800  Level Houston Center
12:23 26.4097 -99.3267 47° Northeast 383 441 19,000 1,140 Climbing Houston Center
12:24 26.4858 -99.2397 46° Northeast 390 449 20,200 1,140 Climbing Houston Center
12:25 26.5678 -99.1586 42° Northeast 394 453 21,400 1,080 Climbing Houston Center
12:26 26.6517 -99.0761 41° Northeast 397 457 22,500 1,080 Climbing Houston Center
12:27 26.7347 -98.9928 42° Northeast 401 461 23,700 1,260 Climbing Houston Center
12:28 26.8356 -98.8928 41° Northeast 404 465 25,200 1,200 Climbing Houston Center
12:29 26.9194 -98.8067 42° Northeast 409 471 26,300 840 Climbing Houston Center
12:30 27.0044 -98.7211 42° Northeast 411 473 27,000 300 Climbing Houston Center
12:31 27.0925 -98.6319 42° Northeast 425 489 27,000  Level Houston Center
12:32 27.1850 -98.5394 42° Northeast 443 510 27,000  Level Houston Center
12:33 27.2972 -98.4236 43° Northeast 457 526 27,000  Level Houston Center
12:34 27.3936 -98.3272 42° Northeast 464 534 27,000  Level Houston Center
12:35 27.4919 -98.2317 41° Northeast 468 539 27,000  Level Houston Center
12:36 27.5908 -98.1342 41° Northeast 472 543 27,000  Level Houston Center
12:37 27.6892 -98.0367 41° Northeast 472 543 27,000  Level Houston Center
12:38 27.8081 -97.9200 41° Northeast 473 544 27,000  Level Houston Center
12:39 27.9072 -97.8233 41° Northeast 472 543 27,000  Level Houston Center
12:40 28.0044 -97.7278 41° Northeast 472 543 27,000  Level Houston Center
12:41 28.1028 -97.6303 41° Northeast 471 542 27,000  Level Houston Center
12:42 28.2011 -97.5331 41° Northeast 469 540 27,000  Level Houston Center
12:43 28.3189 -97.4158 41° Northeast 468 539 27,000  Level Houston Center
12:44 28.4175 -97.3169 41° Northeast 472 543 27,000 -300 Level Houston Center
12:45 28.5142 -97.2194 42° Northeast 467 537 26,400 -720 Descending Houston Center
12:47 28.6075 -97.1244 42° Northeast 453 521 25,500 -900 Descending Houston Center
12:48 28.7044 -97.0278 41° Northeast 462 532 24,600 -1,020 Descending Houston Center
12:49 28.8217 -96.9089 42° Northeast 470 541 23,400 -1,020 Descending Houston Center
12:50 28.9181 -96.8103 42° Northeast 468 539 22,500 -1,080 Descending Houston Center
12:51 29.0108 -96.7156 42° Northeast 458 527 21,200 -1,320 Descending Houston Center
12:52 29.1033 -96.6222 41° Northeast 450 518 19,800 -1,440 Descending Houston Center
12:52 29.1731 -96.5503 42° Northeast 435 501 18,700 -1,500 Descending Houston Center
12:53 29.1906 -96.5336 40° Northeast 427 491 18,300 -2,040 Descending Houston Center
12:54 29.2756 -96.4458 42° Northeast 393 452 16,200 -2,520 Descending Houston Center
12:55 29.3547 -96.3653 42° Northeast 393 452 13,700 -2,640 Descending Houston Center
12:56 29.4397 -96.2792 41° Northeast 378 435 10,800 -1,740 Descending Houston Center
12:57 29.5169 -96.1986 42° Northeast 344 396 10,000 -420 Descending Houston Center
12:58 29.5747 -96.1064 54° Northeast 353 406 9,900 -540 Descending Houston Center
12:59 29.6208 -96.0189 59° Northeast 294 338 9,000 -1,500 Descending Houston Center
13:00 29.6617 -95.9567 53° Northeast 276 318 7,200 -1,620 Descending Houston Center
13:00 29.6686 -95.9522 29° Northeast 272 313 7,100 -240 Descending Houston Center
13:01 29.7250 -95.9108 33° Northeast 256 295 7,000 -120 Descending Houston Center
13:01 29.7419 -95.8972 35° Northeast 264 304 7,000  Level Houston Center
13:02 29.7836 -95.8633 35° Northeast 261 300 7,000  Level Houston Center
13:02 29.8008 -95.8478 38° Northeast 261 300 7,000  Level Houston Center
13:03 29.8519 -95.8047 36° Northeast 268 308 7,000 -480 Level Houston Center
13:04 29.8961 -95.7347 54° Northeast 267 307 6,200 -1,380 Descending Houston Center
13:05 29.9342 -95.6650 58° Northeast 255 293 4,200 -1,740 Descending Houston Center
13:05 29.9408 -95.6558 50° Northeast 260 299 4,000 -1,020 Descending Houston Center
13:06 29.9703 -95.6006 58° Northeast 236 272 3,200 -1,020 Descending Houston Center
13:06 29.9772 -95.5908 50° Northeast 248 285 3,000 -180 Descending Houston Center
13:07 29.9939 -95.5242 74° East 237 273 3,000 -540 Level Houston Center
13:08 29.9919 -95.4678 92° East 163 188 2,100 -1,080 Descending Houston Center
13:08 29.9936 -95.4542 82° East 201 231 1,900 -780 Descending Houston Center
13:09 29.9925 -95.4292 93° East 129 148 1,400 -720 Descending Houston Center
13:09 29.9939 -95.4125 84° East 163 188 1,200 -720 Descending Houston Center
13:10 29.9931 -95.3881 92° East 128 147 700 -720 Descending Houston Center
13:10 29.9944 -95.3714 84° East 141 162 500 -480 Descending Houston Center
13:12 29.9833 -95.3333 49° Northeast  Level FlightAware Approximate
13:19 29.9844 -95.3414 49° Northeast  Level Estimated